Location: Eastlake (historical)
(39.0077°N, 122.6678°W)
Time: 10:35:26
(UTC+00:00)

ALOS - Pass Details

Date: 21 April 2021
Orbit: 682 x 685 km, 97.9° (Epoch: 08 May)

Event Time Altitude Azimuth Distance (km) Brightness Sun altitude
Rises 11:10:00 0° 34° (NE) 3,052 6.9 -23.9°
Reaches altitude 10° 11:13:19 10° 59° (ENE) 2,130 5.9 -23.4°
Maximum altitude 11:15:45 14° 91° (E) 1,863 5.1 -23.0°
Drops below altitude 10° 11:18:11 10° 123° (ESE) 2,121 5.0 -22.7°
Sets 11:21:28 0° 148° (SSE) 3,030 5.5 -22.2°
